Stations météo

réclame
Mon MeteoGroup
Bournemouth Airport, Grande-Bretagne (3862): Température de l'air & dewpoint: 14.06.2019 23:00:00 - 20.06.2019 23:00:00 (BST)Bournemouth Airport, Grande-Bretagne (3862): Température de l'air -20cm & Température de l'air -100cm: 14.06.2019 23:00:00 - 20.06.2019 23:00:00 (BST)Bournemouth Airport, Grande-Bretagne (3862): Vitesse du vent & gusts: 14.06.2019 23:00:00 - 20.06.2019 23:00:00 (BST)Bournemouth Airport, Grande-Bretagne (3862): Direction du vent: 14.06.2019 23:00:00 - 20.06.2019 23:00:00 (BST)Bournemouth Airport, Grande-Bretagne (3862): reduced air pressure: 14.06.2019 23:00:00 - 20.06.2019 23:00:00 (BST)Bournemouth Airport, Grande-Bretagne (3862): visibility: 14.06.2019 23:00:00 - 20.06.2019 23:00:00 (BST)Bournemouth Airport, Grande-Bretagne (3862): Ensoleillement: 14.06.2019 23:00:00 - 20.06.2019 23:00:00 (BST)Bournemouth Airport, Grande-Bretagne (3862): Quantités de précipitations: 14.06.2019 23:00:00 - 20.06.2019 23:00:00 (BST)
Date & Time tt [°C] td [°C] tt -20cm [°C] tt -100cm [°C] ff [km/h] ff [knt] fx [km/h] fx [knt] dd ppp [hPa] vv [km] sd [min] rr [mm]
20.06.2019 23:00:00 12,0 10,3 - - 4 2 - - WSW 1016,8 7 0 0,0
20.06.2019 22:00:00 13,3 10,1 - - 8 4 - - NW 1016,4 10 0 0,0
20.06.2019 21:00:00 14,9 11,4 - - 13 7 - - WSW 1015,6 10 18 0,0
20.06.2019 20:00:00 15,4 10,8 - - 16 9 - - WSW 1015,2 10 6 0,0
20.06.2019 19:00:00 15,7 11,0 - - 18 10 - - WSW 1015,1 10 18 0,0
20.06.2019 18:00:00 16,9 9,8 - - 22 12 - - W 1015,1 10 6 0,0
20.06.2019 17:00:00 16,8 10,4 - - 24 13 - - WSW 1014,7 10 18 0,0
20.06.2019 16:00:00 17,8 9,5 - - 22 12 - - WSW 1014,5 10 36 0,0
20.06.2019 15:00:00 18,3 10,1 - - 28 15 - - WSW 1014,3 10 42 0,0
20.06.2019 14:00:00 18,3 11,4 - - 21 11 - - WSW 1014,1 10 30 0,0
20.06.2019 13:00:00 17,1 11,4 - - 22 12 - - WSW 1014,2 29 6 0,0
20.06.2019 12:00:00 16,1 10,3 - - 18 10 - - W 1014,2 10 0 0,0
20.06.2019 11:00:00 14,9 9,7 - - 18 10 - - WSW 1013,8 10 30 0,0
20.06.2019 10:00:00 15,9 11,6 15,7 13,9 16 9 - - WSW 1013,6 10 18 0,0
20.06.2019 09:00:00 14,6 11,2 - - 18 10 - - W 1013,4 10 30 0,0
20.06.2019 08:00:00 13,6 11,0 - - 16 9 - - W 1013,0 10 60 0,0
20.06.2019 07:00:00 11,6 10,2 - - 13 7 - - W 1012,8 10 60 0,0
20.06.2019 06:00:00 9,2 9,0 - - 15 8 - - W 1012,6 15 36 0,0
20.06.2019 05:00:00 8,3 7,7 - - 11 6 - - W 1012,0 13 0 0,0
20.06.2019 04:00:00 8,5 7,5 - - 9 5 - - W 1011,8 14 0 0,0
20.06.2019 03:00:00 9,1 8,2 - - 8 4 - - W 1011,7 18 0 0,0
20.06.2019 02:00:00 10,2 8,1 - - 5 3 - - W 1011,5 21 0 0,0
20.06.2019 01:00:00 11,6 8,9 - - 8 4 - - WNW 1011,4 10 - 0,0
20.06.2019 00:00:00 13,0 9,5 - - 13 7 - - WNW 1011,2 10 0 0,0
19.06.2019 23:00:00 13,3 11,6 - - 11 6 - - W 1010,7 17 0 0,0
19.06.2019 22:00:00 14,1 12,3 - - 8 4 - - W 1010,3 10 0 0,0
19.06.2019 21:00:00 14,8 13,8 - - 13 7 - - W 1009,7 10 0 0,0
19.06.2019 20:00:00 15,4 14,6 - - 5 3 - - SW 1009,4 7 0 0,2
19.06.2019 19:00:00 15,6 14,6 - - 16 9 - - W 1009,0 5 0 0,0
19.06.2019 18:00:00 15,9 14,8 - - 9 5 - - W 1008,8 6 0 0,6
19.06.2019 17:00:00 15,9 14,6 - - 8 4 - - WNW 1008,6 8 0 0,4
19.06.2019 16:00:00 18,3 13,4 - - 13 7 - - W 1008,5 20 0 0,0
19.06.2019 15:00:00 18,8 13,7 - - 13 7 - - W 1008,5 25 0 0,0
19.06.2019 14:00:00 18,5 14,1 - - 9 5 - - WNW 1008,5 10 0 0,0
19.06.2019 13:00:00 18,2 15,2 - - 13 7 - - W 1008,4 10 0 0,2
19.06.2019 12:00:00 17,4 14,7 - - 5 3 - - NW 1008,3 8 0 0,2
19.06.2019 11:00:00 17,5 14,1 - - 5 3 - - - 1008,2 10 0 0,0
19.06.2019 10:00:00 16,5 14,6 15,7 13,7 8 4 - - NNW 1008,1 8 0 0,0
19.06.2019 09:00:00 15,5 14,3 - - 9 5 - - N 1007,8 6 0 0,0
19.06.2019 08:00:00 14,9 14,1 - - 9 5 - - N 1007,6 5 0 0,0
19.06.2019 07:00:00 14,4 13,9 - - 5 3 - - - 1007,5 5 0 0,0
19.06.2019 06:00:00 13,9 13,5 - - 5 3 - - N 1007,3 5 0 0,0
19.06.2019 05:00:00 13,8 13,2 - - 8 4 - - NNW 1007,5 4,4 0 0,0
19.06.2019 04:00:00 14,4 13,6 - - 8 4 - - N 1008,0 6 0 0,0
19.06.2019 03:00:00 14,4 13,8 - - 11 6 - - N 1007,8 7 0 0,0
19.06.2019 02:00:00 14,2 13,8 - - 9 5 - - N 1008,2 8 0 0,0
19.06.2019 01:00:00 14,2 13,7 - - 8 4 - - NNW 1009,0 7 - 0,0
19.06.2019 00:00:00 14,5 13,9 - - 5 3 - - N 1009,4 10 0 0,0
18.06.2019 23:00:00 14,9 14,4 - - 8 4 - - NNW 1009,7 8 0 0,0
18.06.2019 22:00:00 15,2 14,6 - - 5 3 - - - 1010,4 9 0 0,0
18.06.2019 21:00:00 15,8 15,1 - - 8 4 - - NNE 1010,4 9 0 0,2
18.06.2019 20:00:00 16,2 15,4 - - 8 4 - - NE 1010,4 7 0 0,6
18.06.2019 19:00:00 17,0 15,0 - - 8 4 - - ENE 1011,3 10 0 0,0
18.06.2019 18:00:00 17,3 15,1 - - 8 4 - - ENE 1011,4 10 0 0,0
18.06.2019 17:00:00 16,8 14,5 - - 8 4 - - NNE 1011,8 10 0 0,0
18.06.2019 16:00:00 15,8 14,5 - - 11 6 - - ENE 1011,9 10 0 0,8
18.06.2019 15:00:00 16,2 13,9 - - 9 5 - - SE 1013,5 10 0 0,4
18.06.2019 14:00:00 17,0 14,1 - - 11 6 - - E 1013,1 10 0 0,0
18.06.2019 13:00:00 16,1 13,6 - - 9 5 - - NE 1013,6 10 0 0,0
18.06.2019 12:00:00 16,0 12,5 - - 9 5 - - E 1014,2 14 0 0,0
18.06.2019 11:00:00 15,0 12,8 - - 11 6 - - NE 1013,9 10 0 0,2
18.06.2019 10:00:00 14,2 13,0 15,4 13,7 9 5 - - ESE 1015,0 5 0 0,4
18.06.2019 09:00:00 13,3 13,0 - - 2 1 - - - 1015,7 5 0 0,0
18.06.2019 08:00:00 12,3 12,2 - - 4 2 - - - 1015,6 1,2 0 0,0
18.06.2019 07:00:00 11,5 11,4 - - 4 2 - - - 1015,4 1,2 0 0,0
18.06.2019 06:00:00 11,0 10,9 - - 4 2 - - N 1015,5 0,1 0 0,0
18.06.2019 05:00:00 10,5 10,3 - - 2 1 - - NE 1015,7 0,7 0 0,0
18.06.2019 04:00:00 9,1 8,8 - - 8 4 - - N 1015,9 1,9 0 0,0
18.06.2019 03:00:00 8,6 8,0 - - 2 1 - - N 1016,0 8 0 0,0
18.06.2019 02:00:00 8,6 7,8 - - 4 2 - - NNE 1016,4 14 0 0,0
18.06.2019 01:00:00 9,2 7,9 - - 4 2 - - SW 1016,9 15 - 0,0
18.06.2019 00:00:00 12,0 11,0 - - 8 4 - - SSE 1017,1 13 0 0,0
17.06.2019 23:00:00 10,3 8,5 - - 4 2 - - - 1017,2 10 0 0,0
17.06.2019 22:00:00 13,1 10,6 - - 4 2 - - SW 1017,3 10 0 0,0
17.06.2019 21:00:00 14,3 10,5 - - 9 5 - - SW 1017,0 19 24 0,0
17.06.2019 20:00:00 16,8 9,8 - - 18 10 - - W 1016,7 10 48 0,0
17.06.2019 19:00:00 16,8 9,7 - - 18 10 - - WSW 1016,9 23 18 0,0
17.06.2019 18:00:00 17,0 10,0 - - 21 11 - - WSW 1017,3 24 24 0,0
17.06.2019 17:00:00 17,3 9,6 - - 21 11 - - WSW 1017,5 10 30 0,0
17.06.2019 16:00:00 17,7 10,6 - - 21 11 - - SW 1017,8 10 6 0,0
17.06.2019 15:00:00 18,8 11,1 - - 22 12 - - SW 1018,0 10 18 0,0
17.06.2019 14:00:00 17,1 8,7 - - 16 9 - - SSW 1018,0 10 12 0,0
17.06.2019 13:00:00 18,4 10,2 - - 22 12 - - WSW 1018,0 28 12 0,0
17.06.2019 12:00:00 16,7 11,0 - - 22 12 - - WSW 1018,3 21 0 0,0
17.06.2019 11:00:00 16,6 12,1 - - 21 11 - - SW 1018,3 20 0 0,0
17.06.2019 10:00:00 16,3 10,5 15,2 13,7 18 10 - - SW 1018,4 10 0 0,0
17.06.2019 09:00:00 16,1 9,9 - - 16 9 - - SSW 1018,3 10 6 0,0
17.06.2019 08:00:00 15,6 10,3 - - 15 8 - - SW 1018,2 10 36 0,0
17.06.2019 07:00:00 14,5 11,7 - - 11 6 - - SSW 1018,0 10 42 0,0
17.06.2019 06:00:00 13,0 11,3 - - 11 6 - - S 1017,8 14 6 0,0
17.06.2019 05:00:00 12,7 11,5 - - 8 4 - - S 1017,8 12 0 0,0
17.06.2019 04:00:00 12,9 11,4 - - 11 6 - - SSW 1017,9 15 0 0,0
17.06.2019 03:00:00 13,7 11,1 - - 11 6 - - SSW 1018,2 19 0 0,0
17.06.2019 02:00:00 14,0 11,6 - - 8 4 - - S 1018,2 18 0 0,0
17.06.2019 01:00:00 14,1 11,8 - - 8 4 - - SSW 1018,5 17 - 0,0
17.06.2019 00:00:00 14,2 11,9 - - 13 7 - - SSW 1018,7 17 0 0,0
16.06.2019 23:00:00 14,3 12,2 - - 13 7 - - SSW 1018,8 10 0 0,0
16.06.2019 22:00:00 14,5 11,8 - - 11 6 - - SSW 1018,8 10 0 0,0
16.06.2019 21:00:00 14,7 11,8 - - 16 9 - - SW 1018,5 17 0 0,0
16.06.2019 20:00:00 15,5 11,5 - - 15 8 - - SW 1018,2 19 18 0,0
16.06.2019 19:00:00 15,9 11,5 - - 21 11 - - SW 1018,1 10 6 0,0
16.06.2019 18:00:00 16,4 11,4 - - 24 13 - - SW 1018,1 10 6 0,0
16.06.2019 17:00:00 16,9 11,8 - - 22 12 - - SW 1018,0 23 18 0,0
16.06.2019 16:00:00 17,5 11,9 - - 28 15 46 25 WSW 1018,0 10 0 0,0
16.06.2019 15:00:00 17,8 13,3 - - 26 14 52 28 SW 1017,8 10 12 0,0
16.06.2019 14:00:00 16,6 12,5 - - 28 15 46 25 SW 1017,5 10 0 0,0
16.06.2019 13:00:00 15,7 12,4 - - 24 13 48 26 SW 1017,4 10 6 0,0
16.06.2019 12:00:00 16,3 12,8 - - 24 13 - - SW 1016,8 20 6 0,0
16.06.2019 11:00:00 15,5 12,7 - - 26 14 - - SW 1016,5 10 0 0,0
16.06.2019 10:00:00 15,0 12,8 14,7 13,7 18 10 - - SW 1016,1 10 0 0,0
16.06.2019 09:00:00 14,4 13,1 - - 22 12 - - SW 1015,8 10 0 0,2
16.06.2019 08:00:00 14,2 12,9 - - 16 9 - - SW 1015,4 10 0 0,2
16.06.2019 07:00:00 13,8 12,6 - - 16 9 - - SSW 1015,1 10 0 0,2
16.06.2019 06:00:00 13,6 12,1 - - 11 6 - - SSW 1015,0 16 0 0,0
16.06.2019 05:00:00 13,0 11,7 - - 11 6 - - SSW 1014,8 18 0 0,0
16.06.2019 04:00:00 13,1 11,6 - - 13 7 - - SSW 1014,9 18 0 0,0
16.06.2019 03:00:00 12,4 11,2 - - 8 4 - - S 1014,9 19 0 0,0
16.06.2019 02:00:00 11,9 10,7 - - 8 4 - - S 1015,0 20 0 0,0
16.06.2019 01:00:00 11,5 10,0 - - 9 5 - - SSW 1015,2 19 - 0,0
16.06.2019 00:00:00 11,5 10,0 - - 9 5 - - SSW 1015,0 20 0 0,0
15.06.2019 23:00:00 11,8 9,8 - - 9 5 - - SW 1014,7 19 0 0,0
15.06.2019 22:00:00 12,2 9,4 - - 11 6 - - SSW 1014,4 10 0 0,0
15.06.2019 21:00:00 13,4 8,6 - - 15 8 - - WSW 1013,7 26 24 0,0
15.06.2019 20:00:00 14,7 8,6 - - 15 8 - - WSW 1013,5 28 54 0,0
15.06.2019 19:00:00 15,6 8,2 - - 18 10 - - SW 1013,3 10 48 0,0
15.06.2019 18:00:00 16,2 8,9 - - 18 10 - - SW 1013,1 30 42 0,0
15.06.2019 17:00:00 16,2 9,2 - - 22 12 - - SW 1012,9 10 48 0,0
15.06.2019 16:00:00 16,8 10,5 - - 26 14 - - SW 1012,7 10 30 0,0
15.06.2019 15:00:00 15,4 12,2 - - 22 12 - - SSW 1012,7 21 0 0,0
15.06.2019 14:00:00 15,0 12,8 - - 24 13 46 25 SSW 1012,6 10 0 0,0
15.06.2019 13:00:00 14,0 12,3 - - 21 11 - - SSW 1012,5 10 0 0,0
15.06.2019 12:00:00 13,1 12,1 - - 22 12 - - SSW 1012,4 5 0 1,0
15.06.2019 11:00:00 13,3 11,4 - - 22 12 - - S 1012,2 5 0 0,2
15.06.2019 10:00:00 14,3 11,3 14,7 13,7 24 13 - - S 1012,1 10 0 0,0
15.06.2019 09:00:00 14,9 11,6 - - 24 13 - - S 1011,9 10 12 0,0
15.06.2019 08:00:00 14,7 11,3 - - 21 11 - - SSW 1011,6 25 18 0,0
15.06.2019 07:00:00 14,6 11,6 - - 16 9 - - SSW 1011,4 10 42 0,0
15.06.2019 06:00:00 13,5 10,9 - - 21 11 - - SSW 1011,4 24 0 0,0
15.06.2019 05:00:00 13,5 11,0 - - 15 8 - - SSW 1011,4 23 0 0,0
15.06.2019 04:00:00 13,4 11,0 - - 13 7 - - S 1011,5 18 0 0,0
15.06.2019 03:00:00 13,4 10,3 - - 15 8 - - S 1011,5 26 0 0,0
15.06.2019 02:00:00 13,3 10,1 - - 13 7 - - SSW 1011,9 25 0 0,0
15.06.2019 01:00:00 13,2 10,9 - - 15 8 - - SSW 1012,0 24 - 0,0
15.06.2019 00:00:00 12,8 10,6 - - 9 5 - - S 1012,0 24 0 0,0
14.06.2019 23:00:00 12,6 10,5 - - 9 5 - - S 1012,1 22 0 0,0

tt = Température de l'air
td = dewpoint
tt -20cm = Température de l'air -20cm
tt -100cm = Température de l'air -100cm
ff = Vitesse du vent
fx = gusts
dd = Direction du vent
ppp = reduced air pressure
vv = visibility
sd = Ensoleillement
rr = Quantités de précipitations

stations d'obs. à proximité